Location: Finale Ligure
(44.1667°N, 8.3333°E)
Time: 21:29:49
(UTC+00:00)

Daily predictions for brighter satellites

Satellite Brightness Start Highest point End
(mag) Time Altitude Azimuth Time Altitude Azimuth Time Altitude Azimuth
Helios 1A Rocket 3.8 16:20:08 10° S 16:24:12 56° W 16:28:18 10° NNW
Cosmos 1680 Rocket 4.4 16:19:49 10° SSE 16:24:15 29° E 16:28:44 10° NE
ATLAS 5 CENTAUR R/B 2.6 16:18:46 10° NW 16:24:38 82° SW 16:31:20 10° SSE
H-2A R/B 3.4 16:21:30 10° SE 16:24:59 34° ENE 16:28:27 10° N
Cosmos 2369 4.1 16:21:07 10° S 16:26:26 44° ESE 16:31:49 10° NE
Cosmos 2344 4.4 16:19:27 10° WSW 16:26:40 48° NW 16:34:47 10° NNE
YAOGAN 1 4.4 16:25:34 10° ENE 16:26:55 11° ENE 16:28:15 10° NE
Cosmos 773 Rocket 4.4 16:24:10 10° SSW 16:29:18 66° WNW 16:34:31 10° NNE
Cosmos 1697 Rocket 3.0 16:27:55 10° S 16:33:17 46° ESE 16:38:40 10° NE
Cosmos 2082 3.7 16:28:24 10° NNW 16:33:58 58° ENE 16:39:30 10° SE
CZ-4B R/B 4.2 16:36:00 10° NNW 16:38:22 18° WNW 16:40:46 10° WSW
CZ-4B R/B 4.3 16:34:20 10° S 16:39:26 47° W 16:44:33 10° NNW
Cosmos 1238 Rocket 3.6 16:35:47 10° NNW 16:39:40 51° W 16:42:56 10° S
Cosmos 2278 4.1 16:39:08 10° S 16:44:30 45° ESE 16:49:54 10° NE
Cosmos 1656 3.8 16:41:08 10° SSW 16:46:41 81° WNW 16:52:12 10° NNE
Cosmos 1356 Rocket 3.4 16:42:52 10° S 16:47:03 86° E 16:51:20 10° NNE
YAOGAN 6 3.9 16:45:22 10° ESE 16:47:53 19° ENE 16:50:25 10° NNE
Cosmos 923 Rocket 4.0 16:45:16 10° S 16:50:25 66° ESE 16:55:36 10° NNE
USA 215 4.3 16:46:00 10° ENE 16:51:24 29° N 16:56:50 10° NW
IRS-1C Rocket 4.2 16:47:05 10° SSE 16:52:22 82° WSW 16:57:42 10° NNW
Cosmos 1805 Rocket 3.9 16:50:23 10° NNW 16:54:45 71° W 16:59:07 10° S
Cosmos 2056 Rocket 4.1 16:51:46 10° N 16:56:23 32° ENE 17:01:01 10° SE
NOSS 2-3 (E) 3.7 16:54:52 10° SSW 16:59:10 73° ESE 17:04:00 11° NE
CZ-4 R/B 2.3 16:58:09 10° SE 17:01:41 28° ENE 17:05:10 10° N
Cosmos 2034 Rocket 4.2 16:55:32 10° N 17:01:45 53° ENE 17:07:58 10° SSE
USA 229 DEB 4.3 16:55:57 10° WSW 17:02:22 54° NW 17:09:09 10° NNE
USA 229 4.3 16:56:03 10° WSW 17:02:28 54° NW 17:09:14 10° NNE
BREEZE-M DEB (TANK) 3.3 16:59:37 10° WNW 17:02:47 28° N 17:03:53 19° NE
Cosmos 724 4.2 16:57:15 10° NNW 17:03:05 64° NE 17:08:48 10° SE
NOSS 3-1 (C) 4.1 17:00:16 10° WSW 17:05:42 51° NW 17:12:01 10° NNE
Lacrosse 4 Rocket 1.8 17:01:52 10° SW 17:05:53 59° WNW 17:09:54 10° NNE
Okean-O 2.5 17:02:14 10° SSE 17:06:39 72° ENE 17:11:05 10° N
NOSS 3-1 (A) 3.5 17:01:58 10° SW 17:07:30 73° NW 17:13:56 10° NE
SeaSat 1 2.7 17:02:48 10° SE 17:07:30 47° NE 17:12:14 10° NNW
ERBS 3.8 17:04:45 10° W 17:07:42 29° NNW 17:10:09 13° NNE
NOSS 2-3 (D) 3.6 17:04:31 10° SSW 17:08:50 82° SE 17:13:16 13° NE
YAOGAN 3 4.5 17:07:55 10° SSE 17:12:16 79° ENE 17:16:39 10° N
Cosmos 1933 4.1 17:15:24 10° SSE 17:19:00 31° E 17:20:31 24° NE
Cosmos 1633 Rocket 3.1 17:16:46 10° N 17:21:13 87° WSW 17:25:37 10° S
Envisat 2.9 17:17:11 10° SSE 17:22:15 80° ENE 17:27:21 10° N
Cosmos 1862 3.5 17:18:29 10° NNW 17:22:28 74° W 17:26:26 10° S
Cosmos 1606 3.7 17:21:37 10° SSE 17:24:16 27° ESE 17:24:16 27° ESE
Cosmos 1151 Rocket 2.9 17:20:34 10° S 17:24:53 69° E 17:29:16 10° NNE
CSL-04 Rocket 3.9 17:19:57 10° SE 17:25:00 45° ENE 17:30:02 10° N
Sich 1 4.3 17:22:47 10° NNW 17:26:57 44° W 17:31:07 10° SSW
Cosmos 2228 Rocket 3.8 17:24:12 10° SSE 17:28:10 32° E 17:29:08 29° ENE
Tsikada Rocket 4.1 17:22:20 10° S 17:28:33 58° E 17:34:50 10° NNE
SL-8 R/B 4.3 17:26:26 10° SSW 17:30:57 41° SE 17:32:40 30° E
CENTAUR R/B 4.3 17:28:50 10° NNW 17:34:30 22° NNE 17:37:13 19° NE
Cosmos 1328 Rocket 3.5 17:30:11 10° S 17:34:35 86° W 17:39:01 10° N
Cosmos 1933 Rocket 3.5 17:33:09 10° N 17:37:26 55° ENE 17:41:43 10° SSE
SL-16 R/B 3.2 17:33:52 10° SSE 17:38:07 26° ESE 17:38:07 26° ESE
COSMO-SKYMED 1 2.4 17:34:34 10° NNE 17:38:57 81° ESE 17:43:17 10° S
Cosmos 1515 Rocket 3.4 17:34:38 10° S 17:38:58 65° E 17:42:37 14° NNE
Cosmos 1980 Rocket 2.1 17:33:32 10° SSW 17:39:12 85° ESE 17:43:59 15° NNE
Cosmos 158 Rocket 3.9 17:37:42 10° SSW 17:43:00 80° ESE 17:46:56 18° NNE
Cosmos 1452 Rocket 4.2 17:40:11 10° N 17:44:36 32° NE 17:44:36 32° NE
Cosmos 2322 Rocket 3.4 17:41:14 10° SSE 17:44:20 23° SE 17:44:20 23° SE
Cosmos 1371 Rocket 4.0 17:41:58 10° NNW 17:47:11 81° WSW 17:52:20 10° SSE
Geosat 4.2 17:44:30 14° NNE 17:48:48 71° WNW 17:53:47 10° SW
USA 116 4.2 17:48:38 15° NNE 17:52:38 74° ESE 17:57:51 10° S
GEOS 3 Rocket 3.9 17:49:26 21° NNE 17:52:55 65° NW 17:58:09 10° SW
USA 238 DEB 4.4 17:49:18 10° NNW 17:55:44 34° NE 17:56:59 32° ENE
USA 238 4.5 17:49:24 10° NNW 17:55:49 34° NE 17:57:04 32° NE
ATLAS 3B R/B 4.1 17:51:57 10° NNW 17:56:24 18° NNE 17:57:03 18° NNE
YAOGAN 1 2.5 17:58:02 10° SSE 18:02:21 82° WSW 18:06:43 10° NNW
Cosmos 2263 Rocket 2.1 17:57:36 10° NNW 18:03:06 59° ENE 18:04:09 50° ESE
Meteor 1-14 Rocket 4.5 17:58:07 10° N 18:03:57 50° ENE 18:04:46 47° E
Ariane Rocket 3.7 18:06:44 37° NNE 18:06:44 37° NNE 18:10:07 10° N
GPS 2-04 Rocket1 4.5 18:04:39 10° SW 18:06:34 18° SSW 18:06:34 18° SSW
Cosmos 1470 Rocket 4.5 18:03:19 10° NNW 18:07:41 50° W 18:11:59 10° SSW
DELTA 2 R/B (1) 4.4 18:04:04 10° SW 18:09:06 35° SSE 18:09:35 34° SSE
COSMOS 2455 4.1 18:06:53 10° S 18:09:52 25° SSE 18:09:52 25° SSE
Cosmos 1697 Rocket 4.4 18:12:30 10° WSW 18:17:26 30° NW 18:22:23 10° N
USA 215 3.6 18:33:21 46° NNE 18:33:28 46° NNE 18:39:37 10° NW
CZ-4 R/B 3.6 18:33:13 10° SSW 18:36:40 25° W 18:40:05 10° NW
SeaSat 1 4.5 18:41:08 10° SSW 18:45:11 26° WSW 18:49:17 10° NW
SL-16 R/B 3.7 19:16:48 10° SW 19:20:04 32° WSW 19:20:04 32° WSW
Cosmos 1980 Rocket 4.5 19:20:04 10° W 19:23:58 19° NW 19:25:47 16° NNW
CENTAUR R/B 3.9 19:19:23 10° NNW 19:24:25 39° N 19:24:25 39° N
Cosmos 2322 Rocket 4.1 19:24:02 10° SW 19:26:13 23° WSW 19:26:13 23° WSW
Cosmos 2263 Rocket 4.4 19:42:30 10° NW 19:45:55 21° W 19:45:55 21° W
ATLAS 3B R/B 4.5 19:42:12 10° NNW 19:44:18 21° NNW 19:44:18 21° NNW
